Regional Weather Roundup
Issued by NWS

Home | Current Version | Previous Version | Text Only | Print | Product List | Glossary Off
Versions: 1 2 3 4 5 6 7 8 9 10 11 12 13 14 15 16 17 18 19 20 21 22 23 24 25 26 27 28 29 30 31 32 33 34 35 36 37 38 39 40 41 42 43 44 45 46 47 48 49 50

000
ASUS43 KFSD 231710
RWRSD

WEATHER ROUNDUP FOR SOUTH DAKOTA
NATIONAL WEATHER SERVICE SIOUX FALLS SD
1200 PM CDT TUE AUG 23 2016

NOTE: "FAIR" INDICATES FEW OR NO CLOUDS BELOW 12,000 FEET WITH NO
SIGNIFICANT WEATHER AND/OR OBSTRUCTIONS TO VISIBILITY.


SDZ001>005-009-010-012>017-231800-
NORTHWEST AND NORTH CENTRAL SOUTH DAKOTA

CITY           SKY/WX    TMP DP  RH WIND       PRES   REMARKS
BUFFALO          N/A     73  34  23 NW28G36   29.84R
FAITH            N/A     79  41  25 N31G38    29.79R
MOBRIDGE       PTSUNNY   79  57  46 NW18      29.66R
$$

SDZ012>016-024>037-041>051-057-063-072>074-231800-
SOUTHWEST AND SOUTH CENTRAL SOUTH DAKOTA

CITY           SKY/WX    TMP DP  RH WIND       PRES   REMARKS
RAPID CTY ARPT SUNNY     76  35  22 NW32G43   29.90R
PIERRE         SUNNY     83  61  47 SW14G21   29.68R
CUSTER           N/A    N/A N/A N/A MISG      30.02R
ELLSWORTH AFB  SUNNY     75  37  25 NW28G40   29.70
PHILIP         SUNNY     78  48  34 NW29G38   29.76S
PINE RIDGE     SUNNY     79  37  22 N18G29    29.90R
WINNER         FAIR      86  66  51 S18       29.75S
$$

SDZ004>011-016>023-039-040-231800-
NORTHEAST SOUTH DAKOTA

CITY           SKY/WX    TMP DP  RH WIND       PRES   REMARKS
ABERDEEN       SUNNY     84  64  50 S20G28    29.68S
WATERTOWN      SUNNY     79  65  62 S21G30    29.80R
BROOKINGS      MOSUNNY   76  66  71 S18G29    29.82F
SISSETON         N/A     84  66  54 S15G21    29.72S
$$

SDZ017-020-022-023-036>040-048>070-231800-
SOUTHEAST SOUTH DAKOTA

CITY           SKY/WX    TMP DP  RH WIND       PRES   REMARKS
SIOUX FALLS    CLOUDY    74  67  78 S20G28    29.85F
HURON          SUNNY     80  63  55 S21G32    29.74S
CHAMBERLAIN    SUNNY     85  67  54 S18G24    29.74S
MITCHELL       SUNNY     82  65  56 S24G35    29.78F
YANKTON        CLOUDY    68  64  88 SE13      29.84F
$$

ABBREVIATIONS USED IN REMARKS
   TC - TEMPERATURE IN CELSIUS
  WCI - WIND CHILL INDEX
   HX - HEAT INDEX
  VSB - VISIBILITY





USA.gov is the U.S. government's official web portal to all federal, state and local government web resources and services.